Location: Calgary
(51.0833°N, 114.0833°W)
Time: 08:15:56
(UTC-07:00)

Envisat - Visible Passes

Search period start: 21 February 2018 00:00
Search period end: 03 March 2018 00:00
Orbit: 764 x 766 km, 98.2° (Epoch: 21 February)

Date Brightness Start Highest point End Pass type
(mag) Time Alt. Az. Time Alt. Az. Time Alt. Az.
21 Feb 4.0 18:39:08 10° ESE 18:43:14 25° ENE 18:47:21 10° N visible
21 Feb 3.5 20:16:56 10° S 20:21:56 58° W 20:26:58 10° NNW visible
22 Feb 2.9 19:40:07 10° SSE 19:45:10 73° ENE 19:50:16 10° N visible
22 Feb 5.5 21:21:14 10° SW 21:24:45 19° W 21:28:18 10° NW visible
23 Feb 3.5 19:03:56 10° SE 19:08:36 38° ENE 19:13:17 10° N visible
23 Feb 4.4 20:43:00 10° SSW 20:47:39 36° W 20:52:21 10° NNW visible
24 Feb 3.2 20:05:42 10° S 20:10:46 71° WSW 20:15:52 10° NNW visible
24 Feb 5.9 21:49:13 10° W 21:50:44 11° W 21:52:15 10° WNW visible
25 Feb 3.0 19:29:05 10° SSE 19:34:04 60° ENE 19:39:04 10° N visible
25 Feb 5.2 21:09:31 10° SW 21:13:29 23° W 21:17:28 10° NW visible
26 Feb 3.7 18:53:06 10° SE 18:57:32 32° ENE 19:02:01 10° N visible
26 Feb 4.1 20:31:37 10° S 20:36:27 44° W 20:41:19 10° NNW visible
27 Feb 3.0 19:54:31 10° SSE 19:59:36 86° WSW 20:04:44 10° NNW visible
27 Feb 5.8 21:36:48 10° WSW 21:39:25 14° W 21:42:03 10° NW visible
28 Feb 3.2 19:18:05 10° SE 19:22:58 49° ENE 19:27:52 10° N visible
28 Feb 4.9 20:57:56 10° SSW 21:02:14 27° W 21:06:34 10° NW visible
01 Mar 3.7 20:20:18 10° S 20:25:16 54° W 20:30:15 10° NNW visible
02 Mar 2.9 19:43:24 10° SSE 19:48:28 79° ENE 19:53:34 10° NNW visible
02 Mar 5.6 21:24:49 10° SW 21:28:07 17° W 21:31:27 10° NW visible
